Mosby, MO

11:35 PM CST on December 15, 2019 (GMT -0600)
Clay County Regional

Weather History for KGPH - October, 2019

Change the Weather History Date:

Saturday, October 19, 2019

  Actual Average (KMKC) Record (KMKC)
Temperature  
Mean Temperature 55 °F -  
Max Temperature 64 °F 65 °F 82 °F (2017)
Min Temperature 44 °F 46 °F 36 °F (2001)
Degree Days  
Heating Degree Days 10    
Growing Degree Days 5 (Base 50)    
Moisture  
Dew Point 49 °F    
Average Humidity 82    
Maximum Humidity 100    
Minimum Humidity 56    
Precipitation  
Precipitation 0.00 in - - ()
Sea Level Pressure  
Sea Level Pressure 29.78 in    
Wind  
Wind Speed 1 mph ()    
Max Wind Speed 8 mph    
Max Gust Speed -    
Visibility 9.7 miles    
Events Rain    
Averages and records for this station are not official NWS values.
T = Trace of Precipitation, MM = Missing Value Source: Averaged Metar Reports

Daily Weather History Graph

Daily Weather History Graph

Search for Another Location

Airport or City:

Astronomy

Oct. 19, 2019 Rise Set
Actual Time 7:30 AM CDT 6:32 PM CDT
Civil Twilight 7:03 AM CDT 6:59 PM CDT
Nautical Twilight 6:32 AM CDT 7:31 PM CDT
Astronomical Twilight 6:01 AM CDT 8:02 PM CDT
Moon 10:43 PM CDT (10/19) 1:02 PM CDT (10/19)
Length of Visible Light 11h 56m
Length of Day
11h 01m
Waning Gibbous, 69% of the Moon is Illuminated
Oct 19
Waning Gibbous
Oct 21
Last Quarter
Oct 27
New
Nov 4
First Quarter
Nov 12
Full

Hourly Weather History & Observations

Time (CDT) Temp. Dew Point Humidity Pressure Visibility Wind Dir Wind Speed Gust Speed Precip Events Conditions
12:15 AM 55.4 °F 44.6 °F 67% 29.73 in 10.0 mi Calm Calm - N/A   Clear
12:35 AM 55.4 °F 44.6 °F 67% 29.73 in 10.0 mi Calm Calm - N/A   Clear
12:55 AM 55.4 °F 44.6 °F 67% 29.73 in 10.0 mi Calm Calm - N/A   Clear
1:15 AM 53.6 °F 46.4 °F 77% 29.74 in 10.0 mi Calm Calm - N/A   Clear
1:35 AM 55.4 °F 44.6 °F 67% 29.74 in 10.0 mi Calm Calm - N/A   Clear
1:55 AM 53.6 °F 44.6 °F 72% 29.75 in 10.0 mi Calm Calm - N/A   Mostly Cloudy
2:35 AM 51.8 °F 46.4 °F 82% 29.77 in 10.0 mi Calm Calm - N/A   Overcast
2:55 AM 53.6 °F 46.4 °F 77% 29.77 in 10.0 mi Calm Calm - N/A   Light Drizzle
3:15 AM 53.6 °F 46.4 °F 77% 29.76 in 10.0 mi Calm Calm - N/A   Mostly Cloudy
3:35 AM 53.6 °F 46.4 °F 77% 29.75 in 10.0 mi Calm Calm - N/A   Scattered Clouds
3:55 AM 53.6 °F 46.4 °F 77% 29.75 in 10.0 mi Calm Calm - N/A   Mostly Cloudy
4:15 AM 53.6 °F 46.4 °F 77% 29.74 in 10.0 mi Calm Calm - N/A   Mostly Cloudy
4:35 AM 53.6 °F 46.4 °F 77% 29.74 in 10.0 mi Calm Calm - N/A   Mostly Cloudy
5:15 AM 51.8 °F 46.4 °F 82% 29.75 in 10.0 mi Calm Calm - N/A   Overcast
5:35 AM 51.8 °F 46.4 °F 82% 29.75 in 10.0 mi Calm Calm - N/A   Overcast
5:55 AM 51.8 °F 46.4 °F 82% 29.75 in 10.0 mi Calm Calm - N/A   Overcast
6:15 AM 51.8 °F 46.4 °F 82% 29.75 in 10.0 mi Calm Calm - N/A   Overcast
6:35 AM 51.8 °F 46.4 °F 82% 29.75 in 10.0 mi Calm Calm - N/A   Overcast
6:55 AM 51.8 °F 46.4 °F 82% 29.76 in 10.0 mi Calm Calm - N/A   Light Drizzle
7:15 AM 51.8 °F 46.4 °F 82% 29.76 in 10.0 mi Calm Calm - N/A Rain Rain
7:35 AM 51.8 °F 48.2 °F 88% 29.76 in 7.0 mi Calm Calm - N/A Rain Light Rain
7:55 AM 51.8 °F 48.2 °F 88% 29.76 in 10.0 mi Calm Calm - N/A Rain Light Rain
8:15 AM 50.0 °F 50.0 °F 100% 29.77 in 7.0 mi Calm Calm - N/A Rain Light Rain
8:35 AM 51.8 °F 50.0 °F 94% 29.77 in 10.0 mi Calm Calm - N/A Rain Light Rain
8:55 AM 51.8 °F 50.0 °F 94% 29.77 in 10.0 mi Calm Calm - N/A   Light Drizzle
9:15 AM 51.8 °F 50.0 °F 94% 29.79 in 10.0 mi Calm Calm - N/A   Light Drizzle
9:35 AM 51.8 °F 50.0 °F 94% 29.79 in 10.0 mi Calm Calm - N/A   Overcast
9:55 AM 51.8 °F 51.8 °F 100% 29.80 in 10.0 mi Calm Calm - N/A   Light Drizzle
10:15 AM 53.6 °F 51.8 °F 94% 29.80 in 10.0 mi Calm Calm - N/A   Overcast
10:35 AM 53.6 °F 51.8 °F 94% 29.79 in 10.0 mi Calm Calm - N/A   Overcast
10:55 AM 53.6 °F 51.8 °F 94% 29.80 in 10.0 mi Calm Calm - N/A   Overcast
11:15 AM 53.6 °F 51.8 °F 94% 29.80 in 10.0 mi Calm Calm - N/A   Overcast
11:35 AM 55.4 °F 51.8 °F 88% 29.80 in 10.0 mi Calm Calm - N/A   Overcast
11:55 AM 55.4 °F 51.8 °F 88% 29.80 in 10.0 mi Calm Calm - N/A   Overcast
12:15 PM 55.4 °F 51.8 °F 88% 29.80 in 10.0 mi Calm Calm - N/A   Overcast
12:55 PM 59.0 °F 51.8 °F 77% 29.80 in 10.0 mi West 5.8 mph - N/A   Unknown
1:15 PM 59.0 °F 51.8 °F 77% 29.80 in 10.0 mi WNW 8.1 mph - N/A   Overcast
1:35 PM 59.0 °F 51.8 °F 77% 29.80 in 10.0 mi WNW 8.1 mph - N/A   Overcast
1:55 PM 59.0 °F 51.8 °F 77% 29.79 in 10.0 mi Calm Calm - N/A   Overcast
2:15 PM 59.0 °F 51.8 °F 77% 29.78 in 10.0 mi NNW 5.8 mph - N/A   Overcast
2:55 PM 59.0 °F 51.8 °F 77% 29.78 in 10.0 mi Calm Calm - N/A   Overcast
3:15 PM 60.8 °F 51.8 °F 72% 29.78 in 10.0 mi Calm Calm - N/A   Unknown
3:35 PM 60.8 °F 51.8 °F 72% 29.78 in 10.0 mi Calm Calm - N/A   Overcast
3:55 PM 62.6 °F 50.0 °F 63% 29.78 in 10.0 mi North 6.9 mph - N/A   Overcast
4:15 PM 64.4 °F 50.0 °F 59% 29.78 in 10.0 mi NW 5.8 mph - N/A   Mostly Cloudy
4:55 PM 64.4 °F 50.0 °F 59% 29.78 in 10.0 mi NW 5.8 mph - N/A   Overcast
5:15 PM 64.4 °F 48.2 °F 56% 29.78 in 10.0 mi North 5.8 mph - N/A   Scattered Clouds
5:35 PM 64.4 °F 48.2 °F 56% 29.78 in 10.0 mi Calm Calm - N/A   Clear
5:55 PM 62.6 °F 48.2 °F 59% 29.78 in 10.0 mi Calm Calm - N/A   Clear
6:15 PM 60.8 °F 50.0 °F 68% 29.78 in 10.0 mi Calm Calm - N/A   Scattered Clouds
7:35 PM 55.4 °F 50.0 °F 82% 29.80 in 10.0 mi Calm Calm - N/A   Clear
7:55 PM 53.6 °F 50.0 °F 88% 29.80 in 10.0 mi Calm Calm - N/A   Clear
8:15 PM 53.6 °F 50.0 °F 88% 29.81 in 10.0 mi Calm Calm - N/A   Clear
8:35 PM 51.8 °F 50.0 °F 94% 29.82 in 10.0 mi Calm Calm - N/A   Clear
9:15 PM 50.0 °F 50.0 °F 100% 29.82 in 10.0 mi Calm Calm - N/A   Clear
9:35 PM 50.0 °F 48.2 °F 94% 29.82 in 10.0 mi Calm Calm - N/A   Clear
9:55 PM 48.2 °F 46.4 °F 93% 29.83 in 10.0 mi Calm Calm - N/A   Clear
10:15 PM 48.2 °F 46.4 °F 93% 29.83 in 7.0 mi Calm Calm - N/A   Clear
10:35 PM 46.4 °F 46.4 °F 100% 29.84 in 4.0 mi Calm Calm - N/A   Clear
10:55 PM 46.4 °F 46.4 °F 100% 29.85 in 10.0 mi Calm Calm - N/A   Scattered Clouds
11:15 PM 46.4 °F 44.6 °F 93% 29.85 in 10.0 mi Calm Calm - N/A   Clear
11:35 PM 46.4 °F 44.6 °F 93% 29.85 in 7.0 mi Calm Calm - N/A   Unknown
11:55 PM 44.6 °F 44.6 °F 100% 29.86 in 10.0 mi Calm Calm - N/A   Mostly Cloudy